Location: Wildlife_Club
(35.6000°N, 81.4330°W)
Time: 07:00:05
(UTC-04:00)

A-11 Canister half - Pass Details

Date: 29 June 2019
Orbit: 1514 x 1685 km, 47.2° (Epoch: 22 July)

Event Time Altitude Azimuth Distance (km) Brightness Sun altitude
Rises 10:40:17 0° 251° (WSW) 4,929 11.3 51.5°
Reaches altitude 10° 10:43:33 10° 255° (WSW) 3,934 10.9 52.2°
Maximum altitude 10:53:32 62° 335° (NNW) 1,827 10.0 54.2°
Drops below altitude 10° 11:03:15 10° 55° (NE) 3,831 11.6 56.1°
Sets 11:06:24 0° 59° (ENE) 4,794 11.9 56.8°
